Location: Ch�tillon
(48.8024°N, 2.2935°E)
Time: 03:44:25
(UTC+00:00)

RS-15 - Pass Details

Date: 04 July 2022
Orbit: 1881 x 2163 km, 64.8° (Epoch: 08 August)

Event Time Altitude Azimuth Distance (km) Brightness Sun altitude
Rises 23:30:30 0° 322° (NW) 5,700 11.5 -18.2°
Reaches altitude 10° 23:34:03 10° 318° (NW) 4,691 10.8 -18.2°
Maximum altitude 23:45:53 56° 246° (WSW) 2,441 8.3 -18.4°
Enters shadow 23:53:36 24° 179° (S) 3,554 8.7 -18.4°
